SV2JU-2 Weather Reports


Display with metric or nautical units.
time (UTC)temp
F
wind
direction
speed
MPH
gust
MPH
rain 1hr
in
rain 24hr
in
rain mn
in
humidity
%
barometer
mb
20260507171939 67 0 0.0 0.0 0.00 0.00 0.00 37 1016.0
20260507170710 67 0 0.0 0.0 0.00 0.00 0.00 39 1017.0
20260507165440 68 0 0.0 0.0 0.00 0.00 0.00 39 1017.0
20260507164210 68 0 0.0 0.0 0.00 0.00 0.00 38 1017.0
20260507162939 68 0 0.0 0.0 0.00 0.00 0.00 39 1017.0
20260507161710 68 181 0.0 2.0 0.00 0.00 0.00 39 1017.0
20260507160439 69 161 2.0 3.0 0.00 0.00 0.00 38 1017.0
20260507153939 69 0 0.0 0.0 0.00 0.00 0.00 38 1017.0
20260507152710 69 0 0.0 0.0 0.00 0.00 0.00 38 1017.0
20260507151439 69 0 0.0 0.0 0.00 0.00 0.00 38 1017.0
20260507150210 69 266 0.0 2.0 0.00 0.00 0.00 37 1017.0
20260507133209 70 266 0.0 2.0 0.00 0.00 0.00 42 1017.0
20260507131935 69 0 0.0 0.0 0.00 0.00 0.00 43 1017.0
20260507130709 69 164 0.0 2.0 0.00 0.00 0.00 44 1017.0
20260507125435 69 0 0.0 0.0 0.00 0.00 0.00 43 1017.0
20260507124206 69 0 0.0 0.0 0.00 0.00 0.00 43 1017.0
20260507122936 69 5 2.0 3.0 0.00 0.00 0.00 48 1018.0
20260507121706 68 5 2.0 3.0 0.00 0.00 0.00 47 1018.0
20260507120435 68 5 2.0 3.0 0.00 0.00 0.00 47 1018.0
20260507115206 67 18 2.0 3.0 0.00 0.00 0.00 46 1018.0
20260507113935 68 0 0.0 0.0 0.00 0.00 0.00 47 1018.0
20260507112708 68 0 0.0 0.0 0.00 0.00 0.00 47 1019.0
20260507111435 68 0 0.0 0.0 0.00 0.00 0.00 46 1019.0
20260507110206 68 0 0.0 0.0 0.00 0.00 0.00 45 1019.0
20260507104935 69 0 0.0 0.0 0.00 0.00 0.00 40 1019.0
20260507103708 69 0 0.0 0.0 0.00 0.00 0.00 33 1019.0
20260507102435 69 0 0.0 0.0 0.00 0.00 0.00 29 1019.0
20260507101206 70 278 0.0 2.0 0.00 0.00 0.00 29 1019.0
20260507095935 70 265 1.0 4.0 0.00 0.00 0.00 29 1019.0
20260507094706 70 264 2.0 5.0 0.00 0.00 0.00 29 1018.0
20260507093435 70 265 0.0 3.0 0.00 0.00 0.00 28 1018.0
20260507092206 70 0 0.0 0.0 0.00 0.00 0.00 28 1018.0
20260507090935 70 339 0.0 3.0 0.00 0.00 0.00 29 1018.0
20260507085706 70 256 0.0 3.0 0.00 0.00 0.00 30 1018.0
20260507084435 70 278 0.0 3.0 0.00 0.00 0.00 30 1018.0
20260507083206 70 270 0.0 2.0 0.00 0.00 0.00 31 1017.0
20260507081935 70 258 0.0 3.0 0.00 0.00 0.00 31 1017.0
20260507080706 70 242 0.0 3.0 0.00 0.00 0.00 30 1017.0
20260507075435 71 252 1.0 4.0 0.00 0.00 0.00 30 1017.0
20260507074206 71 0 0.0 0.0 0.00 0.00 0.00 30 1017.0
20260507072935 71 257 0.0 2.0 0.00 0.00 0.00 29 1017.0
20260507071708 72 0 0.0 0.0 0.00 0.00 0.00 29 1017.0
20260507070435 71 0 0.0 0.0 0.00 0.00 0.00 29 1017.0
20260507065205 71 265 0.0 2.0 0.00 0.00 0.00 29 1017.0
20260507063935 72 259 0.0 3.0 0.00 0.00 0.00 28 1017.0
20260507062705 73 264 0.0 2.0 0.00 0.00 0.00 26 1017.0
20260507061435 75 252 0.0 2.0 0.00 0.00 0.00 27 1017.0
20260507060206 74 0 0.0 0.0 0.00 0.00 0.00 27 1016.0
20260507054935 74 0 0.0 0.0 0.00 0.00 0.00 29 1017.0
20260507053705 72 250 0.0 2.0 0.00 0.00 0.00 30 1016.0
20260507052435 72 0 0.0 0.0 0.00 0.00 0.00 30 1016.0
20260507051205 71 0 0.0 0.0 0.00 0.00 0.00 31 1016.0
20260507045935 69 356 0.0 2.0 0.00 0.00 0.00 34 1016.0
20260507044705 68 0 0.0 0.0 0.00 0.00 0.00 39 1016.0
20260507043435 66 0 0.0 0.0 0.00 0.00 0.00 41 1016.0
20260507042205 64 0 0.0 0.0 0.00 0.00 0.00 44 1016.0
20260507040934 62 0 0.0 0.0 0.00 0.00 0.00 46 1016.0
20260507035705 62 0 0.0 0.0 0.00 0.00 0.00 46 1016.0
20260507034434 62 0 0.0 0.0 0.00 0.00 0.00 46 1016.0
20260507033205 62 0 0.0 0.0 0.00 0.00 0.00 47 1016.0
20260507031934 62 0 0.0 0.0 0.00 0.00 0.00 48 1016.0
20260507030706 62 0 0.0 0.0 0.00 0.00 0.00 49 1016.0
20260507025434 62 0 0.0 0.0 0.00 0.00 0.00 49 1016.0
20260507024205 62 0 0.0 0.0 0.00 0.00 0.00 48 1016.0
20260507022934 62 0 0.0 0.0 0.00 0.00 0.00 49 1015.0
20260507021705 62 6 0.0 2.0 0.00 0.00 0.00 50 1016.0
20260507020434 62 0 0.0 0.0 0.00 0.00 0.00 50 1015.0
20260507015205 62 9 0.0 2.0 0.00 0.00 0.00 50 1015.0
20260507013934 62 12 1.0 3.0 0.00 0.00 0.00 50 1015.0
20260507012705 62 8 1.0 4.0 0.00 0.00 0.00 50 1015.0
20260507011434 62 0 0.0 0.0 0.00 0.00 0.00 50 1015.0
20260507010205 62 0 0.0 0.0 0.00 0.00 0.00 50 1015.0
20260507004934 63 0 0.0 0.0 0.00 0.00 0.00 49 1015.0
20260507003705 63 0 0.0 0.0 0.00 0.00 0.00 49 1015.0
20260507002434 63 1 0.0 2.0 0.00 0.00 0.00 49 1015.0
20260507001205 63 11 2.0 3.0 0.00 0.00 0.00 49 1015.0
20260506235934 63 9 1.0 3.0 0.00 0.00 0.00 49 1015.0
20260506234705 63 356 0.0 2.0 0.00 0.00 0.00 50 1015.0
20260506233434 64 0 0.0 0.0 0.00 0.00 0.00 50 1015.0
20260506232205 64 0 0.0 0.0 0.00 0.00 0.00 50 1015.0
20260506230934 64 0 0.0 0.0 0.00 0.00 0.00 49 1015.0
20260506225705 64 0 0.0 0.0 0.00 0.00 0.00 49 1015.0
20260506224434 64 0 0.0 0.0 0.00 0.00 0.00 49 1015.0
20260506223205 64 0 0.0 0.0 0.00 0.00 0.00 49 1015.0
20260506221934 64 0 0.0 0.0 0.00 0.00 0.00 49 1015.0
20260506220705 64 0 0.0 0.0 0.00 0.00 0.00 50 1015.0
20260506215434 65 0 0.0 0.0 0.00 0.00 0.00 50 1015.0
20260506214205 65 0 0.0 0.0 0.00 0.00 0.00 50 1015.0
20260506212934 65 1 0.0 2.0 0.00 0.00 0.00 50 1016.0
20260506211705 65 14 0.0 2.0 0.00 0.00 0.00 49 1016.0
20260506210434 65 14 0.0 2.0 0.00 0.00 0.00 49 1016.0
20260506205205 66 0 0.0 0.0 0.00 0.00 0.00 49 1016.0
20260506202704 66 0 0.0 0.0 0.00 0.00 0.00 47 1015.0
20260506201434 66 0 0.0 0.0 0.00 0.00 0.00 45 1015.0
20260506200207 67 0 0.0 0.0 0.00 0.00 0.00 44 1015.0
20260506194936 67 0 0.0 0.0 0.00 0.00 0.00 42 1015.0
20260506193707 67 0 0.0 0.0 0.00 0.00 0.00 41 1015.0
20260506192436 67 0 0.0 0.0 0.00 0.00 0.00 41 1015.0
20260506191204 68 0 0.0 0.0 0.00 0.00 0.00 41 1015.0
20260506185934 68 356 0.0 3.0 0.00 0.00 0.00 40 1015.0
20260506184704 68 0 0.0 0.0 0.00 0.00 0.00 39 1015.0
20260506183433 69 0 0.0 0.0 0.00 0.00 0.00 39 1015.0
20260506182204 69 0 0.0 0.0 0.00 0.00 0.00 39 1015.0
20260506180933 69 0 0.0 0.0 0.00 0.00 0.00 38 1015.0
20260506175704 69 0 0.0 0.0 0.00 0.00 0.00 37 1014.0